This is the latest recevied weather packets stored in our database for station/object HP3ICC-23. If no packets are shown the sender has not sent any weather packets the latest 1 day(s).
| Time | Temp. | Humidity | Pressure | Rain* | Wind** | Luminosity | Snow |
|---|---|---|---|---|---|---|---|
| 1778066665 | 13.33° C | 86% | 1012 hPa | 0 mm | - | - | - |
| 1778065465 | 13.89° C | 86% | 1012 hPa | 0 mm | - | - | - |
| 1778063064 | 13.89° C | 87% | 1012 hPa | 0 mm | - | - | - |
| 1778060663 | 13.89° C | 89% | 1013 hPa | 0 mm | - | - | - |
| 1778060603 | 13.89° C | 89% | 1013 hPa | 0 mm | - | - | - |
| 1778055861 | 13.33° C | 89% | 1012 hPa | 0 mm | - | - | - |
| 1778054660 | 13.89° C | 89% | 1012 hPa | 0 mm | - | - | - |
| 1778054600 | 13.89° C | 89% | 1012 hPa | 0 mm | - | - | - |
| 1778052259 | 13.89° C | 88% | 1012 hPa | 0 mm | - | - | - |
| 1778052199 | 13.89° C | 88% | 1012 hPa | 0 mm | - | - | - |
| 1778051058 | 14.44° C | 88% | 1013 hPa | 0 mm | - | - | - |
| 1778050998 | 14.44° C | 88% | 1013 hPa | 0 mm | - | - | - |
| 1778049858 | 13.89° C | 88% | 1013 hPa | 0 mm | - | - | - |
| 1778049797 | 13.89° C | 88% | 1013 hPa | 0 mm | - | - | - |
| 1778048657 | 14.44° C | 88% | 1013 hPa | 0 mm | - | - | - |
| 1778048597 | 14.44° C | 88% | 1013 hPa | 0 mm | - | - | - |
| 1778047396 | 13.89° C | 90% | 1013 hPa | 0 mm | - | - | - |
| 1778046256 | 14.44° C | 90% | 1014 hPa | 0 mm | - | - | - |
| 1778046196 | 14.44° C | 90% | 1014 hPa | 0 mm | - | - | - |
| 1778044995 | 13.89° C | 86% | 1014 hPa | 0 mm | - | - | - |
| 1778043855 | 14.44° C | 86% | 1014 hPa | 0 mm | - | - | - |
| 1778043795 | 14.44° C | 86% | 1014 hPa | 0 mm | - | - | - |
| 1778042654 | 15° C | 90% | 1014 hPa | 0 mm | - | - | - |
| 1778042594 | 15° C | 90% | 1014 hPa | 0 mm | - | - | - |
| 1778041454 | 13.89° C | 91% | 1014 hPa | 0 mm | - | - | - |
* Rain latest hour (hover to see other rain measurements)
** Current wind speed in m/s (hover to see current wind gust speed)